Location: Ajisawe
(8.4333°N, 4.3833°E)
Time: 23:47:31
(UTC+00:00)

S-56A Canister/Altair - Pass Details

Date: 25 April 2021
Orbit: 631 x 2501 km, 38.9° (Epoch: 15 May)

Event Time Altitude Azimuth Distance (km) Brightness Sun altitude
Rises 18:22:22 0° 233° (SW) 6,177 12.7 -8.1°
Reaches altitude 10° 18:26:30 10° 235° (SW) 5,139 12.3 -9.1°
Maximum altitude 18:41:19 75° 318° (NW) 2,191 9.9 -12.6°
Drops below altitude 10° 18:52:13 10° 44° (NE) 3,897 10.9 -15.2°
Sets 18:54:56 0° 46° (NE) 4,659 11.2 -15.9°
